Content
SEND FEEDBACK

United States of America Flag

ROCKWALL, TEXAS


Home > North America > United States > Texas
Elevation: 600 feet     Latitude: 32 55N     Longitude: 096 30W

WEATHER
 
SELECT A DAY
Number of Records: 282,951;   Date Range: 7/9/03 - 3/22/16
 
SHARE

PRINT THIS DATA

[ ← Previous Day ]
WEATHER ALMANAC - FEBRUARY 14, 2013
[ Next Day → ]
[ °C ]   °F
Weather ElementAverageHighLow
Temperature48.2 °F66.2 °F (2:55 pm)32 °F (6:15 am)
Dewpoint34.3 °F39.2 °F (11:15 am)28.4 °F (3:55 pm)
Humidity64.8 %100 % (4:15 am)24 % (3:55 pm)
Barometer30.07 in30.12 in (8:35 am)30.01 in (3:35 pm)
Wind Speed4.9 mph9.2 mph (11:55 am)
Weather ElementAverage
Visibility8.6 mi
Wind DirectionSSE (153.4 °)

Weather ElementTotal
Precipitation---
Heating Degree Days15.9 (Base 65)
Averaged from 67 records on February 14, 2013
WEATHER CONDITIONS BREAKOUT
WIND DIRECTION BREAKOUT
WEATHER BY HOUR - FEBRUARY 14, 2013
[ °C ]   °F
Local TimeTemperatureDewpointHumidityBarometerVisibilityWind DirectionWind SpeedGust SpeedPrecipitationEventsConditions
12:35 AM35.6 °F33.8 °F93 %30.07 in10.0 miSouth (180°)5.8 mphClear
12:55 AM37.4 °F33.8 °F87 %30.07 in10.0 miSouth (170°)4.6 mphClear
1:15 AM37.4 °F33.8 °F87 %30.07 in10.0 miSouth (180°)3.5 mphClear
1:35 AM37.4 °F33.8 °F87 %30.07 in10.0 miCalmClear
1:55 AM37.4 °F33.8 °F87 %30.07 in10.0 miCalmClear
2:15 AM35.6 °F33.8 °F93 %30.07 in10.0 miCalmClear
2:35 AM35.6 °F33.8 °F93 %30.07 in10.0 miSSE (150°)3.5 mphClear
2:55 AM35.6 °F33.8 °F93 %30.06 in7.0 miSSE (150°)3.5 mphClear
3:15 AM33.8 °F32.0 °F93 %30.06 in7.0 miCalmClear
3:55 AM35.6 °F33.8 °F93 %30.07 in4.0 miCalmClear
4:15 AM33.8 °F33.8 °F100 %30.06 in5.0 miSouth (170°)3.5 mphClear
4:35 AM33.8 °F32.0 °F93 %30.07 in5.0 miSSE (160°)4.6 mphClear
4:55 AM33.8 °F32.0 °F93 %30.07 in5.0 miSSE (160°)3.5 mphClear
5:15 AM33.8 °F32.0 °F93 %30.07 in5.0 miCalmClear
5:35 AM33.8 °F32.0 °F93 %30.08 in5.0 miSouth (180°)3.5 mphClear
5:55 AM33.8 °F32.0 °F93 %30.08 in5.0 miSouth (180°)5.8 mphClear
6:15 AM32.0 °F32.0 °F100 %30.09 in5.0 miSouth (180°)4.6 mphClear
6:35 AM32.0 °F32.0 °F100 %30.09 in5.0 miSouth (170°)5.8 mphClear
6:55 AM32.0 °F32.0 °F100 %30.09 in4.0 miSSE (160°)4.6 mphClear
7:15 AM32.0 °F32.0 °F100 %30.10 in4.0 miSSE (160°)4.6 mphClear
7:35 AM32.0 °F32.0 °F100 %30.10 in3.0 miSSE (150°)4.6 mphClear
7:55 AM33.8 °F32.0 °F93 %30.10 in2.5 miSSE (150°)4.6 mphClear
8:15 AM35.6 °F33.8 °F93 %30.11 in3.0 miSSE (160°)3.5 mphClear
8:35 AM37.4 °F35.6 °F93 %30.12 in5.0 miSSE (160°)5.8 mphClear
8:55 AM39.2 °F37.4 °F93 %30.12 in7.0 miSSE (150°)5.8 mphClear
9:15 AM42.8 °F37.4 °F81 %30.12 in10.0 miSouth (180°)5.8 mphClear
9:35 AM44.6 °F37.4 °F76 %30.12 in10.0 miSouth (190°)5.8 mphClear
9:55 AM50.0 °F37.4 °F62 %30.12 in10.0 miSSW (200°)6.9 mphClear
10:15 AM51.8 °F37.4 °F58 %30.12 in10.0 miSSW (210°)8.1 mphClear
10:35 AM51.8 °F37.4 °F58 %30.12 in10.0 miSSW (200°)6.9 mphClear
10:55 AM53.6 °F37.4 °F54 %30.12 in10.0 miSSW (200°)8.1 mphClear
11:15 AM55.4 °F39.2 °F54 %30.12 in10.0 miSW (230°)5.8 mphClear
11:35 AM59.0 °F39.2 °F48 %30.11 in10.0 miSSW (200°)8.1 mphClear
11:55 AM59.0 °F37.4 °F45 %30.10 in10.0 miSSW (200°)9.2 mphClear
12:15 PM60.8 °F37.4 °F42 %30.09 in10.0 miSSW (210°)6.9 mphClear
12:35 PM60.8 °F35.6 °F39 %30.09 in10.0 miSSW (210°)5.8 mphClear
12:55 PM62.6 °F35.6 °F37 %30.07 in10.0 miSouth (190°)8.1 mphClear
1:15 PM64.4 °F35.6 °F34 %30.06 in10.0 miSW (230°)8.1 mphClear
1:35 PM64.4 °F35.6 °F34 %30.05 in10.0 miSouth (190°)6.9 mphClear
2:15 PM64.4 °F33.8 °F32 %30.03 in10.0 miSW (220°)6.9 mphClear
2:35 PM64.4 °F32.0 °F30 %30.03 in10.0 miWSW (240°)6.9 mphClear
2:55 PM66.2 °F32.0 °F28 %30.02 in10.0 miSW (230°)6.9 mphClear
3:15 PM66.2 °F32.0 °F28 %30.02 in10.0 miSW (230°)8.1 mphClear
3:35 PM66.2 °F32.0 °F28 %30.01 in10.0 miSW (220°)4.6 mphClear
3:55 PM66.2 °F28.4 °F24 %30.02 in10.0 miSW (230°)6.9 mphClear
4:15 PM66.2 °F30.2 °F26 %30.01 in10.0 miSSW (200°)4.6 mphClear
4:35 PM66.2 °F30.2 °F26 %30.02 in10.0 miSSW (200°)6.9 mphClear
5:15 PM64.4 °F30.2 °F28 %30.01 in10.0 miSouth (170°)4.6 mphClear
5:35 PM64.4 °F30.2 °F28 %30.02 in10.0 miSouth (170°)4.6 mphClear
6:15 PM59.0 °F33.8 °F39 %30.02 in10.0 miSouth (170°)4.6 mphClear
6:35 PM55.4 °F37.4 °F51 %30.03 in10.0 miESE (120°)3.5 mphClear
6:55 PM55.4 °F35.6 °F47 %30.03 in10.0 miESE (120°)5.8 mphClear
7:15 PM53.6 °F37.4 °F54 %30.03 in10.0 miSE (130°)5.8 mphClear
7:35 PM55.4 °F35.6 °F47 %30.03 in10.0 miSE (130°)6.9 mphClear
7:55 PM53.6 °F37.4 °F54 %30.04 in10.0 miESE (120°)5.8 mphClear
8:15 PM51.8 °F37.4 °F58 %30.05 in10.0 miSE (140°)4.6 mphClear
8:35 PM51.8 °F35.6 °F54 %30.05 in10.0 miSE (140°)3.5 mphClear
8:55 PM51.8 °F35.6 °F54 %30.06 in10.0 miSE (140°)3.5 mphClear
9:15 PM50.0 °F35.6 °F58 %30.05 in10.0 miSE (130°)5.8 mphClear
9:35 PM50.0 °F35.6 °F58 %30.05 in10.0 miSE (140°)5.8 mphClear
9:55 PM50.0 °F35.6 °F58 %30.05 in10.0 miSE (130°)5.8 mphClear
10:15 PM48.2 °F35.6 °F62 %30.05 in10.0 miSE (140°)5.8 mphClear
10:35 PM48.2 °F35.6 °F62 %30.06 in10.0 miSE (140°)5.8 mphClear
10:55 PM48.2 °F35.6 °F62 %30.06 in10.0 miSSE (150°)5.8 mphClear
11:15 PM48.2 °F33.8 °F58 %30.07 in10.0 miSouth (170°)3.5 mphClear
11:35 PM46.4 °F33.8 °F62 %30.08 in10.0 miCalmClear
11:55 PM46.4 °F33.8 °F62 %30.09 in10.0 miCalmClear
Hourly data recorded from KHQZ, located miles away from Rockwall, Texas




STORIES FROM OUR PARTNERS